Location: Mascot Post Office (historical)
(40.2645°N, 99.5462°W)
Time: 00:01:14
(UTC+00:00)

NOSS 3-4 (C) - Pass Details

Date: 29 October 2020
Orbit: 884 x 1328 km, 63.4° (Epoch: 28 November)

Event Time Altitude Azimuth Distance (km) Brightness Sun altitude
Rises 23:58:12 0° 330° (NNW) 3,738 6.8 -4.3°
Reaches altitude 10° 00:02:12 10° 354° (N) 2,878 5.9 -5.0°
Maximum altitude 00:05:49 15° 26° (NNE) 2,627 5.4 -5.7°
Drops below altitude 10° 00:09:37 10° 58° (ENE) 3,050 5.5 -6.4°
Enters shadow 00:11:02 - 67° (ENE) 3,344 5.6 -6.7°
